Time,TemperatureF,DewpointF,PressureIn,WindDirection,WindDirectionDegrees,WindSpeedMPH,WindSpeedGustMPH,Humidity,HourlyPrecipIn,Conditions,Clouds,dailyrainin,SoftwareType,DateUTC
2013-03-12 00:02:00,13.0,-99.9,-100.00,NNW,331,23.0,32.0,-999,-99.99,,,-99.99,,2013-03-12 06:02:00,
2013-03-12 00:12:00,13.0,-99.9,-100.00,NNW,331,23.0,32.0,-999,-99.99,,,-99.99,,2013-03-12 06:12:00,
2013-03-12 00:22:00,13.0,-99.9,-100.00,NNW,329,21.0,29.0,-999,-99.99,,,-99.99,,2013-03-12 06:22:00,
2013-03-12 00:32:00,13.0,-99.9,-100.00,NNW,328,18.0,29.0,-999,-99.99,,,-99.99,,2013-03-12 06:32:00,
2013-03-12 00:42:00,13.0,-99.9,-100.00,NNW,328,18.0,29.0,-999,-99.99,,,-99.99,,2013-03-12 06:42:00,
2013-03-12 00:52:00,13.0,-99.9,-100.00,NNW,330,19.0,26.0,-999,-99.99,,,-99.99,,2013-03-12 06:52:00,
2013-03-12 01:02:00,13.0,-99.9,-100.00,NW,323,16.0,26.0,-999,-99.99,,,-99.99,,2013-03-12 07:02:00,
2013-03-12 01:12:00,13.0,-99.9,-100.00,NW,323,16.0,26.0,-999,-99.99,,,-99.99,,2013-03-12 07:12:00,
2013-03-12 01:22:00,12.0,-99.9,-100.00,NW,323,17.0,28.0,-999,-99.99,,,-99.99,,2013-03-12 07:22:00,
2013-03-12 01:32:00,12.0,-99.9,-100.00,NW,316,15.0,24.0,-999,-99.99,,,-99.99,,2013-03-12 07:32:00,
2013-03-12 01:42:00,12.0,-99.9,-100.00,NW,316,15.0,24.0,-999,-99.99,,,-99.99,,2013-03-12 07:42:00,
2013-03-12 01:53:00,12.0,-99.9,-100.00,NW,307,13.0,25.0,-999,-99.99,,,-99.99,,2013-03-12 07:53:00,
2013-03-12 02:02:00,12.0,-99.9,-100.00,WNW,295,12.0,21.0,-999,-99.99,,,-99.99,,2013-03-12 08:02:00,
2013-03-12 02:13:00,12.0,-99.9,-100.00,WNW,295,12.0,21.0,-999,-99.99,,,-99.99,,2013-03-12 08:13:00,
2013-03-12 02:22:00,12.0,-99.9,-100.00,NW,314,14.0,24.0,-999,-99.99,,,-99.99,,2013-03-12 08:22:00,
2013-03-12 02:33:00,12.0,-99.9,-100.00,WNW,301,13.0,25.0,-999,-99.99,,,-99.99,,2013-03-12 08:33:00,
2013-03-12 02:43:00,12.0,-99.9,-100.00,WNW,301,13.0,25.0,-999,-99.99,,,-99.99,,2013-03-12 08:43:00,
2013-03-12 02:52:00,12.0,-99.9,-100.00,NW,318,15.0,25.0,-999,-99.99,,,-99.99,,2013-03-12 08:52:00,
2013-03-12 03:03:00,12.0,-99.9,-100.00,NW,318,17.0,26.0,-999,-99.99,,,-99.99,,2013-03-12 09:03:00,
2013-03-12 03:12:00,12.0,-99.9,-100.00,NW,318,17.0,26.0,-999,-99.99,,,-99.99,,2013-03-12 09:12:00,
2013-03-12 03:22:00,11.0,-99.9,-100.00,NW,318,18.0,29.0,-999,-99.99,,,-99.99,,2013-03-12 09:22:00,
2013-03-12 03:33:00,11.0,-99.9,-100.00,NW,318,13.0,28.0,-999,-99.99,,,-99.99,,2013-03-12 09:33:00,
2013-03-12 03:43:00,11.0,-99.9,-100.00,NW,318,13.0,28.0,-999,-99.99,,,-99.99,,2013-03-12 09:43:00,
2013-03-12 03:53:00,11.0,-99.9,-100.00,NNW,340,16.0,21.0,-999,-99.99,,,-99.99,,2013-03-12 09:53:00,
2013-03-12 04:02:00,11.0,-99.9,-100.00,NNW,329,17.0,22.0,-999,-99.99,,,-99.99,,2013-03-12 10:02:00,
2013-03-12 04:12:00,11.0,-99.9,-100.00,NNW,329,17.0,22.0,-999,-99.99,,,-99.99,,2013-03-12 10:12:00,
2013-03-12 04:23:00,11.0,-99.9,-100.00,NNW,333,20.0,31.0,-999,-99.99,,,-99.99,,2013-03-12 10:23:00,
2013-03-12 04:33:00,12.0,-99.9,-100.00,NNW,338,20.0,28.0,-999,-99.99,,,-99.99,,2013-03-12 10:33:00,
2013-03-12 04:42:00,12.0,-99.9,-100.00,NNW,338,20.0,28.0,-999,-99.99,,,-99.99,,2013-03-12 10:42:00,
2013-03-12 04:53:00,11.0,-99.9,-100.00,NNW,341,21.0,28.0,-999,-99.99,,,-99.99,,2013-03-12 10:53:00,
2013-03-12 05:02:00,11.0,-99.9,-100.00,NNW,331,16.0,22.0,-999,-99.99,,,-99.99,,2013-03-12 11:02:00,
2013-03-12 05:12:00,11.0,-99.9,-100.00,NNW,331,16.0,22.0,-999,-99.99,,,-99.99,,2013-03-12 11:12:00,
2013-03-12 05:22:00,11.0,-99.9,-100.00,NW,326,18.0,26.0,-999,-99.99,,,-99.99,,2013-03-12 11:22:00,
2013-03-12 05:33:00,11.0,-99.9,-100.00,NW,318,18.0,25.0,-999,-99.99,,,-99.99,,2013-03-12 11:33:00,
2013-03-12 05:43:00,11.0,-99.9,-100.00,NW,318,18.0,25.0,-999,-99.99,,,-99.99,,2013-03-12 11:43:00,
2013-03-12 05:52:00,11.0,-99.9,-100.00,NW,321,17.0,25.0,-999,-99.99,,,-99.99,,2013-03-12 11:52:00,
2013-03-12 06:03:00,11.0,-99.9,-100.00,NW,320,16.0,21.0,-999,-99.99,,,-99.99,,2013-03-12 12:03:00,
2013-03-12 06:12:00,11.0,-99.9,-100.00,NW,320,16.0,21.0,-999,-99.99,,,-99.99,,2013-03-12 12:12:00,
2013-03-12 06:22:00,11.0,-99.9,-100.00,NW,314,17.0,22.0,-999,-99.99,,,-99.99,,2013-03-12 12:22:00,
2013-03-12 06:32:00,11.0,-99.9,-100.00,NW,315,16.0,24.0,-999,-99.99,,,-99.99,,2013-03-12 12:32:00,
2013-03-12 06:42:00,11.0,-99.9,-100.00,NW,315,16.0,24.0,-999,-99.99,,,-99.99,,2013-03-12 12:42:00,
2013-03-12 06:52:00,12.0,-99.9,-100.00,NW,320,15.0,21.0,-999,-99.99,,,-99.99,,2013-03-12 12:52:00,
2013-03-12 07:02:00,12.0,-99.9,-100.00,NW,319,14.0,21.0,-999,-99.99,,,-99.99,,2013-03-12 13:02:00,
2013-03-12 07:12:00,12.0,-99.9,-100.00,NW,319,14.0,21.0,-999,-99.99,,,-99.99,,2013-03-12 13:12:00,
2013-03-12 07:22:00,12.0,-99.9,-100.00,NW,322,13.0,19.0,-999,-99.99,,,-99.99,,2013-03-12 13:22:00,
2013-03-12 07:33:00,13.0,-99.9,-100.00,NW,307,14.0,19.0,-999,-99.99,,,-99.99,,2013-03-12 13:33:00,
2013-03-12 07:43:00,13.0,-99.9,-100.00,NW,307,14.0,19.0,-999,-99.99,,,-99.99,,2013-03-12 13:43:00,
2013-03-12 07:53:00,13.0,-99.9,-100.00,NW,316,13.0,19.0,-999,-99.99,,,-99.99,,2013-03-12 13:53:00,
2013-03-12 08:03:00,13.0,-99.9,-100.00,WNW,298,11.0,19.0,-999,-99.99,,,-99.99,,2013-03-12 14:03:00,
2013-03-12 08:12:00,13.0,-99.9,-100.00,WNW,298,11.0,19.0,-999,-99.99,,,-99.99,,2013-03-12 14:12:00,
2013-03-12 08:22:00,13.0,-99.9,-100.00,NW,321,10.0,15.0,-999,-99.99,,,-99.99,,2013-03-12 14:22:00,
2013-03-12 08:33:00,12.0,-99.9,-100.00,NW,320,11.0,15.0,-999,-99.99,,,-99.99,,2013-03-12 14:33:00,
2013-03-12 08:43:00,12.0,-99.9,-100.00,NW,320,11.0,15.0,-999,-99.99,,,-99.99,,2013-03-12 14:43:00,
2013-03-12 08:53:00,13.0,-99.9,-100.00,NW,315,16.0,22.0,-999,-99.99,,,-99.99,,2013-03-12 14:53:00,
2013-03-12 09:03:00,13.0,-99.9,-100.00,NW,321,16.0,25.0,-999,-99.99,,,-99.99,,2013-03-12 15:03:00,
2013-03-12 09:13:00,13.0,-99.9,-100.00,NW,321,16.0,25.0,-999,-99.99,,,-99.99,,2013-03-12 15:13:00,
2013-03-12 09:23:00,13.0,-99.9,-100.00,NW,322,16.0,24.0,-999,-99.99,,,-99.99,,2013-03-12 15:23:00,
2013-03-12 09:33:00,14.0,-99.9,-100.00,NW,322,15.0,25.0,-999,-99.99,,,-99.99,,2013-03-12 15:33:00,
2013-03-12 09:43:00,14.0,-99.9,-100.00,NW,322,15.0,25.0,-999,-99.99,,,-99.99,,2013-03-12 15:43:00,
2013-03-12 09:54:00,14.0,-99.9,-100.00,NW,321,15.0,24.0,-999,-99.99,,,-99.99,,2013-03-12 15:54:00,
2013-03-12 10:03:00,14.0,-99.9,-100.00,NW,321,15.0,24.0,-999,-99.99,,,-99.99,,2013-03-12 16:03:00,
2013-03-12 10:13:00,14.0,-99.9,-100.00,NW,321,15.0,24.0,-999,-99.99,,,-99.99,,2013-03-12 16:13:00,
2013-03-12 10:23:00,14.0,-99.9,-100.00,NW,312,17.0,25.0,-999,-99.99,,,-99.99,,2013-03-12 16:23:00,
2013-03-12 10:33:00,15.0,-99.9,-100.00,WNW,301,15.0,25.0,-999,-99.99,,,-99.99,,2013-03-12 16:33:00,
2013-03-12 10:43:00,15.0,-99.9,-100.00,WNW,301,15.0,25.0,-999,-99.99,,,-99.99,,2013-03-12 16:43:00,
2013-03-12 10:53:00,15.0,-99.9,-100.00,NW,307,14.0,22.0,-999,-99.99,,,-99.99,,2013-03-12 16:53:00,
2013-03-12 11:03:00,15.0,-99.9,-100.00,NNW,330,13.0,21.0,-999,-99.99,,,-99.99,,2013-03-12 17:03:00,
2013-03-12 11:13:00,15.0,-99.9,-100.00,NNW,330,13.0,21.0,-999,-99.99,,,-99.99,,2013-03-12 17:13:00,
2013-03-12 11:23:00,16.0,-99.9,-100.00,NW,326,12.0,21.0,-999,-99.99,,,-99.99,,2013-03-12 17:23:00,
2013-03-12 11:34:00,17.0,-99.9,-100.00,NNW,330,13.0,19.0,-999,-99.99,,,-99.99,,2013-03-12 17:34:00,
2013-03-12 11:44:00,17.0,-99.9,-100.00,NNW,330,13.0,19.0,-999,-99.99,,,-99.99,,2013-03-12 17:44:00,
2013-03-12 11:54:00,17.0,-99.9,-100.00,NW,319,16.0,26.0,-999,-99.99,,,-99.99,,2013-03-12 17:54:00,
2013-03-12 12:03:00,17.0,-99.9,-100.00,NW,324,15.0,24.0,-999,-99.99,,,-99.99,,2013-03-12 18:03:00,
2013-03-12 12:13:00,17.0,-99.9,-100.00,NW,324,15.0,24.0,-999,-99.99,,,-99.99,,2013-03-12 18:13:00,
2013-03-12 12:24:00,17.0,-99.9,-100.00,NW,325,16.0,28.0,-999,-99.99,,,-99.99,,2013-03-12 18:24:00,
2013-03-12 12:33:00,18.0,-99.9,-100.00,NW,318,15.0,22.0,-999,-99.99,,,-99.99,,2013-03-12 18:33:00,
2013-03-12 12:43:00,18.0,-99.9,-100.00,NW,318,15.0,22.0,-999,-99.99,,,-99.99,,2013-03-12 18:43:00,
2013-03-12 12:54:00,18.0,-99.9,-100.00,NW,323,15.0,22.0,-999,-99.99,,,-99.99,,2013-03-12 18:54:00,
2013-03-12 13:04:00,18.0,-99.9,-100.00,NW,319,14.0,22.0,-999,-99.99,,,-99.99,,2013-03-12 19:04:00,
2013-03-12 13:13:00,18.0,-99.9,-100.00,NW,319,14.0,22.0,-999,-99.99,,,-99.99,,2013-03-12 19:13:00,
2013-03-12 13:23:00,19.0,-99.9,-100.00,NW,305,14.0,24.0,-999,-99.99,,,-99.99,,2013-03-12 19:23:00,
2013-03-12 13:33:00,20.0,-99.9,-100.00,NW,306,11.0,22.0,-999,-99.99,,,-99.99,,2013-03-12 19:33:00,
2013-03-12 13:44:00,20.0,-99.9,-100.00,NW,306,11.0,22.0,-999,-99.99,,,-99.99,,2013-03-12 19:44:00,
2013-03-12 13:53:00,20.0,-99.9,-100.00,NW,310,10.0,19.0,-999,-99.99,,,-99.99,,2013-03-12 19:53:00,
2013-03-12 14:02:00,20.0,-99.9,-100.00,WNW,299,15.0,21.0,-999,-99.99,,,-99.99,,2013-03-12 20:02:00,
2013-03-12 14:13:00,20.0,-99.9,-100.00,WNW,299,15.0,21.0,-999,-99.99,,,-99.99,,2013-03-12 20:13:00,
2013-03-12 14:23:00,20.0,-99.9,-100.00,WNW,299,15.0,22.0,-999,-99.99,,,-99.99,,2013-03-12 20:23:00,
2013-03-12 14:33:00,20.0,-99.9,-100.00,WNW,284,16.0,24.0,-999,-99.99,,,-99.99,,2013-03-12 20:33:00,
2013-03-12 14:42:00,20.0,-99.9,-100.00,WNW,284,16.0,24.0,-999,-99.99,,,-99.99,,2013-03-12 20:42:00,
2013-03-12 14:53:00,21.0,-99.9,-100.00,WNW,288,11.0,16.0,-999,-99.99,,,-99.99,,2013-03-12 20:53:00,
2013-03-12 15:03:00,22.0,-99.9,-100.00,West,269,11.0,18.0,-999,-99.99,,,-99.99,,2013-03-12 21:03:00,
2013-03-12 15:13:00,22.0,-99.9,-100.00,West,269,11.0,18.0,-999,-99.99,,,-99.99,,2013-03-12 21:13:00,
2013-03-12 15:23:00,21.0,-99.9,-100.00,West,281,11.0,16.0,-999,-99.99,,,-99.99,,2013-03-12 21:23:00,
2013-03-12 15:33:00,22.0,-99.9,-100.00,West,261,17.0,29.0,-999,-99.99,,,-99.99,,2013-03-12 21:33:00,
2013-03-12 15:43:00,22.0,-99.9,-100.00,West,261,17.0,29.0,-999,-99.99,,,-99.99,,2013-03-12 21:43:00,
2013-03-12 15:53:00,21.0,-99.9,-100.00,West,281,17.0,24.0,-999,-99.99,,,-99.99,,2013-03-12 21:53:00,
2013-03-12 16:03:00,21.0,-99.9,-100.00,West,268,17.0,25.0,-999,-99.99,,,-99.99,,2013-03-12 22:03:00,
2013-03-12 16:13:00,21.0,-99.9,-100.00,West,268,17.0,25.0,-999,-99.99,,,-99.99,,2013-03-12 22:13:00,
2013-03-12 16:23:00,23.0,-99.9,-100.00,West,263,14.0,22.0,-999,-99.99,,,-99.99,,2013-03-12 22:23:00,
2013-03-12 16:33:00,21.0,-99.9,-100.00,West,270,13.0,21.0,-999,-99.99,,,-99.99,,2013-03-12 22:33:00,
2013-03-12 16:43:00,21.0,-99.9,-100.00,West,270,13.0,21.0,-999,-99.99,,,-99.99,,2013-03-12 22:43:00,
2013-03-12 16:54:00,22.0,-99.9,-100.00,WNW,292,14.0,21.0,-999,-99.99,,,-99.99,,2013-03-12 22:54:00,
2013-03-12 17:03:00,22.0,-99.9,-100.00,West,276,16.0,24.0,-999,-99.99,,,-99.99,,2013-03-12 23:03:00,
2013-03-12 17:13:00,22.0,-99.9,-100.00,West,276,16.0,24.0,-999,-99.99,,,-99.99,,2013-03-12 23:13:00,
2013-03-12 17:23:00,23.0,-99.9,-100.00,West,263,11.0,19.0,-999,-99.99,,,-99.99,,2013-03-12 23:23:00,
2013-03-12 17:34:00,21.0,-99.9,-100.00,West,268,10.0,16.0,-999,-99.99,,,-99.99,,2013-03-12 23:34:00,
2013-03-12 17:44:00,21.0,-99.9,-100.00,West,268,10.0,16.0,-999,-99.99,,,-99.99,,2013-03-12 23:44:00,
2013-03-12 17:53:00,20.0,-99.9,-100.00,WNW,303,13.0,21.0,-999,-99.99,,,-99.99,,2013-03-12 23:53:00,
2013-03-12 18:03:00,19.0,-99.9,-100.00,WNW,287,15.0,24.0,-999,-99.99,,,-99.99,,2013-03-13 00:03:00,
2013-03-12 18:13:00,19.0,-99.9,-100.00,WNW,287,15.0,24.0,-999,-99.99,,,-99.99,,2013-03-13 00:13:00,
2013-03-12 18:23:00,19.0,-99.9,-100.00,WNW,291,13.0,19.0,-999,-99.99,,,-99.99,,2013-03-13 00:23:00,
2013-03-12 18:33:00,20.0,-99.9,-100.00,NNW,327,10.0,21.0,-999,-99.99,,,-99.99,,2013-03-13 00:33:00,
2013-03-12 18:43:00,20.0,-99.9,-100.00,NNW,327,10.0,21.0,-999,-99.99,,,-99.99,,2013-03-13 00:43:00,
2013-03-12 18:54:00,20.0,-99.9,-100.00,NW,314,9.0,16.0,-999,-99.99,,,-99.99,,2013-03-13 00:54:00,
2013-03-12 19:03:00,20.0,-99.9,-100.00,NW,310,14.0,26.0,-999,-99.99,,,-99.99,,2013-03-13 01:03:00,
2013-03-12 19:13:00,20.0,-99.9,-100.00,NW,310,14.0,26.0,-999,-99.99,,,-99.99,,2013-03-13 01:13:00,
2013-03-12 19:22:00,20.0,-99.9,-100.00,NW,305,17.0,25.0,-999,-99.99,,,-99.99,,2013-03-13 01:22:00,
2013-03-12 19:33:00,20.0,-99.9,-100.00,WNW,296,18.0,28.0,-999,-99.99,,,-99.99,,2013-03-13 01:33:00,
2013-03-12 19:43:00,20.0,-99.9,-100.00,WNW,296,18.0,28.0,-999,-99.99,,,-99.99,,2013-03-13 01:43:00,
2013-03-12 19:53:00,20.0,-99.9,-100.00,NW,309,21.0,33.0,-999,-99.99,,,-99.99,,2013-03-13 01:53:00,
2013-03-12 20:03:00,21.0,-99.9,-100.00,NW,325,15.0,29.0,-999,-99.99,,,-99.99,,2013-03-13 02:03:00,
2013-03-12 20:12:00,21.0,-99.9,-100.00,NW,325,15.0,29.0,-999,-99.99,,,-99.99,,2013-03-13 02:12:00,
2013-03-12 20:23:00,21.0,-99.9,-100.00,North,358,9.0,19.0,-999,-99.99,,,-99.99,,2013-03-13 02:23:00,
2013-03-12 20:33:00,21.0,-99.9,-100.00,NNW,340,10.0,21.0,-999,-99.99,,,-99.99,,2013-03-13 02:33:00,
2013-03-12 20:43:00,21.0,-99.9,-100.00,NNW,340,10.0,21.0,-999,-99.99,,,-99.99,,2013-03-13 02:43:00,
2013-03-12 20:53:00,21.0,-99.9,-100.00,WNW,296,17.0,31.0,-999,-99.99,,,-99.99,,2013-03-13 02:53:00,
2013-03-12 21:03:00,21.0,-99.9,-100.00,NW,305,15.0,26.0,-999,-99.99,,,-99.99,,2013-03-13 03:03:00,
2013-03-12 21:13:00,21.0,-99.9,-100.00,NW,305,15.0,26.0,-999,-99.99,,,-99.99,,2013-03-13 03:13:00,
2013-03-12 21:23:00,21.0,-99.9,-100.00,NW,307,15.0,33.0,-999,-99.99,,,-99.99,,2013-03-13 03:23:00,
2013-03-12 21:33:00,21.0,-99.9,-100.00,WNW,295,18.0,35.0,-999,-99.99,,,-99.99,,2013-03-13 03:33:00,
2013-03-12 21:43:00,21.0,-99.9,-100.00,WNW,295,18.0,35.0,-999,-99.99,,,-99.99,,2013-03-13 03:43:00,
2013-03-12 21:53:00,21.0,-99.9,-100.00,NW,308,16.0,28.0,-999,-99.99,,,-99.99,,2013-03-13 03:53:00,
2013-03-12 22:03:00,22.0,-99.9,-100.00,NW,307,18.0,38.0,-999,-99.99,,,-99.99,,2013-03-13 04:03:00,
2013-03-12 22:13:00,22.0,-99.9,-100.00,NW,307,18.0,38.0,-999,-99.99,,,-99.99,,2013-03-13 04:13:00,
2013-03-12 22:23:00,22.0,-99.9,-100.00,NW,321,13.0,24.0,-999,-99.99,,,-99.99,,2013-03-13 04:23:00,
2013-03-12 22:32:00,22.0,-99.9,-100.00,NW,310,16.0,29.0,-999,-99.99,,,-99.99,,2013-03-13 04:32:00,
2013-03-12 22:43:00,22.0,-99.9,-100.00,NW,310,16.0,29.0,-999,-99.99,,,-99.99,,2013-03-13 04:43:00,
2013-03-12 22:53:00,22.0,-99.9,-100.00,NNW,336,12.0,22.0,-999,-99.99,,,-99.99,,2013-03-13 04:53:00,
2013-03-12 23:03:00,22.0,-99.9,-100.00,NW,309,17.0,28.0,-999,-99.99,,,-99.99,,2013-03-13 05:03:00,
2013-03-12 23:13:00,22.0,-99.9,-100.00,NW,309,17.0,28.0,-999,-99.99,,,-99.99,,2013-03-13 05:13:00,
2013-03-12 23:22:00,22.0,-99.9,-100.00,NW,308,19.0,29.0,-999,-99.99,,,-99.99,,2013-03-13 05:22:00,
2013-03-12 23:33:00,22.0,-99.9,-100.00,WNW,298,21.0,32.0,-999,-99.99,,,-99.99,,2013-03-13 05:33:00,
2013-03-12 23:43:00,22.0,-99.9,-100.00,WNW,298,21.0,32.0,-999,-99.99,,,-99.99,,2013-03-13 05:43:00,
2013-03-12 23:53:00,22.0,-99.9,-100.00,WNW,303,23.0,32.0,-999,-99.99,,,-99.99,,2013-03-13 05:53:00,